[[{"header":{"parameterUnit":"m.s-1","parameterCategory":1,"la1":30.2991,"la2":30.254,"lo1":-89.0895,"lo2":-89.0444,"dy":0.0017,"dx":0.0017,"nx":28,"ny":28,"refTime":"2026-01-30T09:00:00:Z","depth":0,"parameterNumber":2,"parameterNumberName":"U-component_of_WINDS"},"data":[0,0,0,0,0,0,0,0,0,0,0,0,0,0,0,0,0,0,0,0,0,0,0,0,0,0,0,0,0,0,0,0,0,0,0,0,0,0,0,0,0,0,0,0,0,0,0,0,0,0,0,0,0,0,0,0,0,0,-1.5744,-1.5745,0,-1.5796,-1.5797,-1.5797,-1.5758,-1.5756,-1.5754,-1.5753,-1.5803,-1.5806,-1.5809,0,0,0,0,0,0,0,0,0,0,0,0,0,-1.5608,-1.5611,-1.5744,-1.5745,-1.5746,-1.5796,-1.5797,-1.5798,-1.5758,-1.5756,-1.5754,-1.5752,-1.5802,-1.5806,-1.581,0,0,0,0,0,0,0,0,0,0,0,0,0,-1.5665,-1.5612,-1.5744,-1.5732,-1.5731,-1.5796,-1.5797,-1.5798,-1.5758,-1.5756,-1.5753,-1.5751,-1.5801,-1.5806,-1.581,-1.5889,0,0,-1.5824,-1.5825,0,0,0,0,0,0,0,0,-1.5661,-1.567,-1.5733,-1.5733,-1.5732,-1.5768,-1.5768,-1.5828,-1.5759,-1.5748,-1.5752,-1.5749,-1.5794,-1.5798,-1.5814,-1.5891,-1.5893,-1.5824,-1.5827,-1.5829,-1.583,0,0,0,0,0,0,0,-1.5658,-1.5667,-1.5765,-1.5734,-1.5734,-1.5723,-1.5728,-1.5779,-1.5785,-1.5749,-1.5746,-1.5753,-1.5793,-1.581,-1.5815,-1.5894,-1.5824,-1.5828,-1.583,-1.5832,-1.6038,-1.6041,0,0,0,0,0,0,-1.5655,-1.5664,-1.5763,-1.5766,-1.569,-1.5728,-1.5733,-1.5759,-1.5784,-1.5785,-1.5755,-1.5751,-1.5803,-1.581,-1.5816,-1.591,-1.5828,-1.5833,-1.5835,-1.6035,-1.6039,-1.6042,0,0,0,0,0,0,-1.5652,-1.5664,-1.5761,-1.5715,-1.5726,-1.5733,-1.5762,-1.5761,-1.5778,-1.5789,-1.5789,-1.5771,-1.5802,-1.581,-1.5871,-1.5911,-1.5835,-1.5839,-1.6032,-1.6036,-1.604,-1.6098,0,0,0,0,0,0,-1.5649,-1.5664,-1.5694,-1.5716,-1.5729,-1.5816,-1.5764,-1.5764,-1.5786,-1.5781,-1.5804,-1.5805,-1.58,-1.5865,-1.5876,-1.5916,-1.5842,-1.6028,-1.6034,-1.6039,-1.6092,-1.6103,-1.6113,0,0,0,0,0,-1.5644,-1.5708,-1.5696,-1.5708,-1.5767,-1.5818,-1.5826,-1.5819,-1.579,-1.582,-1.5827,-1.5805,-1.5905,-1.5871,-1.5883,-1.5925,-1.6026,-1.6032,-1.6038,-1.6088,-1.6101,-1.6113,0,0,0,0,0,0,-1.5691,-1.5711,-1.5698,-1.5771,-1.5793,-1.5812,-1.585,-1.5834,-1.5865,-1.5859,-1.5848,-1.5854,-1.5918,-1.5928,-1.589,-1.6002,-1.5961,-1.597,-1.5994,-1.6007,-1.6017,-1.6013,-1.5846,0,0,0,0,0,-1.571,-1.575,-1.5765,-1.5828,-1.584,-1.5843,-1.5865,-1.5858,-1.5881,-1.589,-1.5901,-1.5923,-1.5959,-1.5984,-1.6018,-1.6093,-1.6097,-1.6128,-1.6138,-1.6147,-1.6155,-1.6195,-1.6208,-1.6062,-1.6062,-1.6062,0,0,-1.5749,-1.5765,-1.5791,-1.5838,-1.5855,-1.5896,-1.5852,-1.5897,-1.5928,-1.5897,-1.5955,-1.5964,-1.5988,-1.6056,-1.6087,-1.6066,-1.6196,-1.6155,-1.6162,-1.6165,-1.6202,-1.6216,-1.6228,-1.6067,-1.6066,-1.6065,0,0,-1.5842,-1.5858,-1.5912,-1.593,-1.5956,-1.5958,-1.5971,-1.5991,-1.5996,-1.6055,-1.6032,-1.6068,-1.6131,-1.6149,-1.6166,-1.6265,-1.6246,-1.6277,-1.633,-1.6369,-1.6381,-1.6391,-1.6426,-1.6438,-1.6284,-1.6285,-1.6285,0,-1.5887,-1.595,-1.5942,-1.599,-1.6011,-1.5985,-1.6039,-1.6056,-1.6092,-1.6107,-1.6083,-1.6162,-1.6176,-1.6248,-1.6272,-1.6287,-1.6301,-1.6274,-1.638,-1.639,-1.6399,-1.6432,-1.6445,-1.6288,-1.6288,-1.6287,-1.6287,0,-1.6004,-1.6047,-1.6088,-1.6123,-1.6149,-1.6199,-1.6199,-1.6225,-1.6216,-1.622,-1.6279,-1.6295,-1.6332,-1.6349,-1.634,-1.642,-1.6406,-1.6381,-1.6339,-1.6417,-1.6448,-1.646,-1.6293,-1.6292,-1.6291,-1.629,0,0,-1.6127,-1.6158,-1.6173,-1.6189,-1.6215,-1.6248,-1.6297,-1.6334,-1.6357,-1.6382,-1.6422,-1.6476,-1.6454,-1.6473,-1.6466,-1.6501,-1.6577,-1.6472,-1.6472,-1.649,-1.6665,-1.6683,-1.6697,-1.6565,-1.6567,-1.6569,-1.6662,0,-1.6221,-1.6307,-1.6302,-1.6383,-1.6422,-1.6398,-1.6441,-1.6461,-1.6466,-1.65,-1.6504,-1.6543,-1.651,-1.6522,-1.6555,-1.6561,-1.6612,-1.6554,-1.6601,-1.6603,-1.6595,-1.6714,-1.6733,-1.682,-1.6675,-1.6677,-1.6678,0,-1.6342,-1.6372,-1.6457,-1.6477,-1.6494,-1.6532,-1.6565,-1.6598,-1.662,-1.6621,-1.6643,-1.663,-1.6678,-1.6635,-1.6701,-1.6662,-1.668,-1.6686,-1.6689,-1.6693,-1.6645,-1.672,-1.6848,-1.6861,-1.6697,-1.6696,-1.6694,0,-1.6423,-1.6485,-1.6543,-1.6557,-1.6583,-1.661,-1.6622,-1.6642,-1.6664,-1.6692,-1.6706,-1.6739,-1.6758,-1.6783,-1.6779,-1.6748,-1.6846,-1.6803,-1.6847,-1.6848,-1.6869,-1.6867,-1.7001,-1.6882,-1.6882,-1.6882,-1.6881,0,-1.6528,-1.6581,-1.658,-1.6616,-1.6674,-1.6667,-1.6724,-1.6732,-1.675,-1.6787,-1.6768,-1.6802,-1.6795,-1.6829,-1.6826,-1.6881,-1.6889,-1.6891,-1.6889,-1.6892,-1.6892,-1.6904,-1.6897,-1.6885,-1.6884,-1.6884,-1.6883,0,-1.6628,-1.663,-1.6692,-1.6711,-1.6717,-1.6759,-1.6774,-1.6808,-1.6811,-1.6857,-1.6868,-1.6872,-1.6911,-1.691,-1.6954,-1.6952,-1.7019,-1.7011,-1.7012,-1.701,-1.7054,-1.705,-1.72,-1.7219,-1.7088,-1.7089,-1.709,0,-1.6695,-1.6735,-1.6758,-1.6782,-1.6795,-1.6833,-1.6856,-1.685,-1.6874,-1.6902,-1.6932,-1.6969,-1.6999,-1.7062,-1.7069,-1.7102,-1.7094,-1.7144,-1.7099,-1.71,-1.7094,-1.7091,-1.7095,-1.7153,-1.7155,-1.7156,-1.7157,0,-1.6813,-1.6811,-1.6845,-1.6879,-1.6907,-1.6933,-1.6957,-1.6977,-1.6974,-1.7002,-1.7042,-1.7065,-1.711,-1.7147,-1.7179,-1.719,-1.7172,-1.7171,-1.7183,-1.7186,-1.7185,-1.7185,-1.7035,-1.7168,-1.7167,-1.7166,-1.7165,-1.7165,-1.6897,-1.6932,-1.6953,-1.6991,-1.7009,-1.7032,-1.7064,-1.7072,-1.7105,-1.7142,-1.7136,-1.7181,-1.7201,-1.7242,-1.7256,-1.729,-1.7272,-1.7289,-1.7294,-1.7298,-1.7302,-1.718,-1.7296,-1.7295,-1.7295,-1.7295,-1.7295,0,-1.7014,-1.7026,-1.7062,-1.7096,-1.7126,-1.7108,-1.7134,-1.7159,-1.7199,-1.722,-1.7249,-1.7295,-1.733,-1.734,-1.7374,-1.7399,-1.7392,-1.7408,-1.7406,-1.7408,-1.7317,-1.7303,-1.7413,-1.7413,-1.7413,-1.7413,-1.7413,-1.7413,-1.7078,-1.7134,-1.7136,-1.7201,-1.7213,-1.7257,-1.7273,-1.7293,-1.731,-1.7362,-1.7392,-1.7398,-1.7414,-1.7449,-1.748,-1.7482,-1.7495,-1.7514,-1.7513,-1.7427,-1.7415,-1.7404,-1.739,-1.7517,-1.7517,-1.7601,-1.7602,-1.7602]},{"header":{"parameterUnit":"m.s-1","parameterCategory":1,"la1":30.2991,"la2":30.254,"lo1":-89.0895,"lo2":-89.0444,"dy":0.0017,"dx":0.0017,"nx":28,"ny":28,"refTime":"2026-01-30T09:00:00:Z","depth":0,"parameterNumber":3,"parameterNumberName":"V-component_of_WINDS"},"data":[0,0,0,0,0,0,0,0,0,0,0,0,0,0,0,0,0,0,0,0,0,0,0,0,0,0,0,0,0,0,0,0,0,0,0,0,0,0,0,0,0,0,0,0,0,0,0,0,0,0,0,0,0,0,0,0,0,0,-1.5422,-1.5422,0,-1.545,-1.5451,-1.5451,-1.5442,-1.5442,-1.5441,-1.5441,-1.5469,-1.547,-1.5471,0,0,0,0,0,0,0,0,0,0,0,0,0,-1.5356,-1.5357,-1.5421,-1.5422,-1.5422,-1.545,-1.5451,-1.5451,-1.5442,-1.5442,-1.5441,-1.544,-1.5468,-1.547,-1.5471,0,0,0,0,0,0,0,0,0,0,0,0,0,-1.5385,-1.5358,-1.5421,-1.5421,-1.5422,-1.545,-1.5451,-1.5451,-1.5443,-1.5442,-1.5441,-1.544,-1.5468,-1.547,-1.5472,-1.5502,0,0,-1.5478,-1.5478,0,0,0,0,0,0,0,0,-1.5383,-1.5387,-1.5421,-1.5421,-1.5422,-1.5442,-1.5438,-1.5468,-1.5443,-1.5435,-1.5441,-1.544,-1.546,-1.5463,-1.547,-1.5503,-1.5504,-1.5478,-1.5479,-1.548,-1.548,0,0,0,0,0,0,0,-1.5381,-1.5386,-1.5433,-1.5421,-1.5422,-1.5419,-1.5422,-1.5444,-1.5452,-1.5435,-1.5435,-1.5438,-1.546,-1.5468,-1.5471,-1.5505,-1.5478,-1.5479,-1.5481,-1.5481,-1.5562,-1.5563,0,0,0,0,0,0,-1.5379,-1.5384,-1.5432,-1.5434,-1.54,-1.5421,-1.5424,-1.5436,-1.5452,-1.5453,-1.5439,-1.5438,-1.5465,-1.5469,-1.5472,-1.5507,-1.548,-1.5482,-1.5483,-1.5561,-1.5562,-1.5563,0,0,0,0,0,0,-1.5378,-1.5384,-1.5431,-1.5409,-1.5415,-1.5423,-1.5437,-1.5437,-1.5445,-1.5455,-1.5456,-1.5446,-1.5465,-1.5469,-1.5494,-1.5508,-1.5482,-1.5484,-1.556,-1.5562,-1.5563,-1.5579,0,0,0,0,0,0,-1.5376,-1.5383,-1.5395,-1.5409,-1.5416,-1.5454,-1.5437,-1.5439,-1.5449,-1.5448,-1.5461,-1.5463,-1.5464,-1.5491,-1.5496,-1.551,-1.5486,-1.5559,-1.5561,-1.5562,-1.5577,-1.5581,-1.5584,0,0,0,0,0,-1.5374,-1.5399,-1.5396,-1.5402,-1.5431,-1.5454,-1.5458,-1.546,-1.545,-1.5462,-1.5468,-1.5462,-1.5506,-1.5494,-1.5499,-1.5514,-1.5558,-1.556,-1.5562,-1.5576,-1.558,-1.5584,0,0,0,0,0,0,-1.5386,-1.5401,-1.5398,-1.5428,-1.544,-1.5453,-1.5468,-1.5465,-1.5479,-1.5477,-1.5478,-1.5481,-1.5507,-1.5513,-1.55,-1.5544,-1.553,-1.5534,-1.5539,-1.5543,-1.5546,-1.5544,-1.5487,0,0,0,0,0,-1.5392,-1.541,-1.5422,-1.5447,-1.5454,-1.546,-1.547,-1.547,-1.5482,-1.5487,-1.5495,-1.5506,-1.5522,-1.5533,-1.5549,-1.5578,-1.558,-1.5591,-1.5594,-1.5597,-1.56,-1.5615,-1.5619,-1.5571,-1.5571,-1.557,0,0,-1.5405,-1.5416,-1.5427,-1.545,-1.5459,-1.5477,-1.5464,-1.5484,-1.5497,-1.549,-1.5514,-1.552,-1.5533,-1.556,-1.5572,-1.5566,-1.5614,-1.56,-1.5602,-1.5603,-1.5617,-1.5622,-1.5626,-1.5572,-1.5572,-1.5572,0,0,-1.5438,-1.5448,-1.547,-1.548,-1.5494,-1.5498,-1.5503,-1.5516,-1.552,-1.5544,-1.5539,-1.5554,-1.5582,-1.5591,-1.5599,-1.5634,-1.563,-1.5639,-1.5657,-1.5671,-1.5675,-1.5678,-1.569,-1.5694,-1.5642,-1.5642,-1.5642,0,-1.5452,-1.548,-1.5482,-1.5502,-1.5511,-1.5506,-1.5528,-1.5537,-1.5555,-1.5562,-1.5554,-1.5589,-1.5597,-1.5626,-1.5634,-1.5641,-1.5647,-1.5638,-1.5674,-1.5678,-1.5681,-1.5692,-1.5697,-1.5643,-1.5643,-1.5643,-1.5643,0,-1.5496,-1.5515,-1.5531,-1.5549,-1.5561,-1.5581,-1.5585,-1.5597,-1.5596,-1.56,-1.5624,-1.5634,-1.5651,-1.5657,-1.5657,-1.5686,-1.5681,-1.5674,-1.5661,-1.5687,-1.5697,-1.5701,-1.5645,-1.5644,-1.5644,-1.5644,0,0,-1.5538,-1.5556,-1.5562,-1.557,-1.5585,-1.5599,-1.5619,-1.5635,-1.5645,-1.5657,-1.5673,-1.5697,-1.569,-1.5699,-1.5699,-1.5712,-1.5738,-1.5703,-1.5704,-1.5709,-1.577,-1.5775,-1.578,-1.5735,-1.5736,-1.5737,-1.5768,0,-1.5572,-1.5607,-1.5609,-1.5641,-1.5658,-1.5653,-1.567,-1.568,-1.5684,-1.5698,-1.5703,-1.5719,-1.571,-1.5715,-1.5727,-1.5732,-1.575,-1.573,-1.5749,-1.575,-1.5746,-1.5785,-1.5791,-1.582,-1.5773,-1.5773,-1.5774,0,-1.5616,-1.563,-1.5663,-1.5675,-1.5682,-1.5698,-1.5712,-1.5726,-1.5738,-1.574,-1.575,-1.5748,-1.5767,-1.5753,-1.5779,-1.5765,-1.5773,-1.5776,-1.5777,-1.5779,-1.5763,-1.5787,-1.583,-1.5834,-1.578,-1.578,-1.5779,0,-1.5642,-1.5669,-1.5693,-1.5699,-1.5714,-1.5724,-1.5731,-1.5741,-1.5751,-1.5763,-1.5769,-1.5784,-1.5792,-1.5803,-1.5805,-1.5795,-1.583,-1.5817,-1.5832,-1.5832,-1.584,-1.5839,-1.5883,-1.5845,-1.5845,-1.5845,-1.5845,0,-1.5679,-1.57,-1.5704,-1.5719,-1.5741,-1.5743,-1.5765,-1.577,-1.5779,-1.5794,-1.579,-1.5804,-1.5805,-1.5819,-1.582,-1.5841,-1.5845,-1.5846,-1.5846,-1.5846,-1.5846,-1.5851,-1.5849,-1.5846,-1.5846,-1.5846,-1.5846,0,-1.5712,-1.5716,-1.5741,-1.5753,-1.5756,-1.5772,-1.5781,-1.5794,-1.5798,-1.5816,-1.5821,-1.5826,-1.5842,-1.5845,-1.5863,-1.5864,-1.5889,-1.5887,-1.5885,-1.5884,-1.5899,-1.5897,-1.5948,-1.5954,-1.5913,-1.5913,-1.5913,0,-1.5735,-1.5751,-1.5764,-1.5774,-1.5781,-1.5796,-1.5806,-1.5807,-1.5817,-1.5831,-1.5842,-1.5858,-1.587,-1.5896,-1.5901,-1.5915,-1.5913,-1.593,-1.5915,-1.5914,-1.5912,-1.5911,-1.5912,-1.5932,-1.5933,-1.5933,-1.5933,0,-1.5776,-1.5777,-1.5792,-1.5806,-1.5818,-1.583,-1.5841,-1.5849,-1.5851,-1.5863,-1.5879,-1.5889,-1.5908,-1.5923,-1.5936,-1.5942,-1.5938,-1.5938,-1.5942,-1.5942,-1.594,-1.5941,-1.5892,-1.5937,-1.5936,-1.5936,-1.5936,-1.5936,-1.5805,-1.5818,-1.5829,-1.5844,-1.5853,-1.5863,-1.5876,-1.5881,-1.5895,-1.591,-1.591,-1.5928,-1.5937,-1.5955,-1.5962,-1.5975,-1.5969,-1.5976,-1.5977,-1.5978,-1.5979,-1.5938,-1.5977,-1.5977,-1.5977,-1.5977,-1.5977,0,-1.5844,-1.5851,-1.5865,-1.5881,-1.5893,-1.5888,-1.59,-1.591,-1.5926,-1.5936,-1.5948,-1.5966,-1.598,-1.5986,-1.6,-1.601,-1.6008,-1.6013,-1.6012,-1.6013,-1.5984,-1.5979,-1.6014,-1.6014,-1.6014,-1.6014,-1.6014,-1.6014,-1.5866,-1.5888,-1.589,-1.5916,-1.5922,-1.594,-1.5947,-1.5956,-1.5963,-1.5984,-1.5996,-1.6,-1.6008,-1.6022,-1.6034,-1.6036,-1.6041,-1.6047,-1.6047,-1.6019,-1.6016,-1.6012,-1.6007,-1.6048,-1.6048,-1.6075,-1.6076,-1.6076]}]]